CW5752 Weather Reports


time (UTC)temp
F
wind
direction
speed
knots
gust
knots
rain 1hr
in
rain 24hr
in
rain mn
in
humidity
%
barometer
mb
20260903233103 94 182 0.0 2.6 0.00 0.00 0.00 52 1012.7
20260903232022 94 181 0.0 3.5 0.00 0.00 0.00 50 1012.7
20260903231017 95 182 0.0 3.5 0.00 0.00 0.00 49 1012.5
20260903230017 96 191 0.0 3.5 0.00 0.00 0.00 47 1012.4
20260903225022 96 188 0.0 1.7 0.00 0.00 0.00 48 1012.5
20260903224022 97 193 0.0 1.7 0.00 0.00 0.00 48 1012.5
20260903223022 97 0.0 1.7 0.00 0.00 0.00 46 1012.5
20260903222022 97 189 0.0 0.9 0.00 0.00 0.00 43 1012.5
20260903221022 97 0.0 1.7 0.00 0.00 0.00 44 1012.6
20260903220017 98 197 0.0 4.3 0.00 0.00 0.00 45 1012.8
20260903215022 97 209 0.0 0.9 0.00 0.00 0.00 44 1012.8
20260903214022 97 0.0 0.0 0.00 0.00 0.00 45 1012.9
20260903213022 98 221 0.0 4.3 0.00 0.00 0.00 44 1012.9
20260903212022 98 169 0.0 2.6 0.00 0.00 0.00 45 1013.0
20260903211102 97 169 0.0 1.7 0.00 0.00 0.00 45 1013.0
20260903210022 95 169 0.0 1.7 0.00 0.00 0.00 49 1013.2
20260903205017 96 169 0.0 1.7 0.00 0.00 0.00 48 1013.3
20260903204022 97 169 0.0 1.7 0.00 0.00 0.00 47 1013.4
20260903203022 95 163 0.0 2.6 0.00 0.00 0.00 49 1013.3
20260903202022 96 159 0.9 5.2 0.00 0.00 0.00 45 1013.4
20260903201042 98 187 1.7 6.1 0.00 0.00 0.00 44 1013.6
20260903200022 98 221 1.7 7.0 0.00 0.00 0.00 45 1013.6
20260903195037 98 217 0.9 4.3 0.00 0.00 0.00 45 1013.6
20260903194037 98 204 0.9 6.1 0.00 0.00 0.00 46 1013.7
20260903193022 98 180 0.9 6.1 0.00 0.00 0.00 45 1014.0
20260903192022 99 217 0.9 4.3 0.00 0.00 0.00 44 1014.0
20260903191022 98 263 0.9 5.2 0.00 0.00 0.00 46 1014.0
20260903190022 96 201 0.9 2.6 0.00 0.00 0.00 45 1014.1
20260903185022 96 188 0.0 3.5 0.00 0.00 0.00 48 1014.2
20260903184017 96 187 0.0 3.5 0.00 0.00 0.00 48 1014.2
20260903183022 96 263 1.7 5.2 0.00 0.00 0.00 48 1014.3
20260903182022 96 244 1.7 5.2 0.00 0.00 0.00 46 1014.4
20260903181022 97 177 1.7 7.0 0.00 0.00 0.00 46 1014.6
20260903180023 97 233 2.6 6.1 0.00 0.00 0.00 46 1014.8
20260903175022 97 188 0.0 4.3 0.00 0.00 0.00 46 1014.8
20260903174023 97 227 1.7 6.1 0.00 0.00 0.00 46 1015.0
20260903173017 95 251 1.7 6.1 0.00 0.00 0.00 49 1015.1
20260903172022 97 255 1.7 5.2 0.00 0.00 0.00 47 1015.2
20260903171047 96 270 3.5 7.8 0.00 0.00 0.00 49 1015.3
20260903165022 95 237 0.9 4.3 0.00 0.00 0.00 50 1015.5
20260903164022 95 275 1.7 5.2 0.00 0.00 0.00 52 1015.5
20260903163017 94 270 1.7 7.0 0.00 0.00 0.00 53 1015.7
20260903162017 94 257 0.9 4.3 0.00 0.00 0.00 53 1015.7
20260903161042 93 250 1.7 4.3 0.00 0.00 0.00 54 1015.8
20260903160022 93 248 1.7 4.3 0.00 0.00 0.00 56 1015.9
20260903155022 92 237 1.7 4.3 0.00 0.00 0.00 57 1015.8
20260903154020 92 202 0.0 2.6 0.00 0.00 0.00 56 1015.9
20260903153022 90 198 0.0 3.5 0.00 0.00 0.00 58 1015.9
20260903152017 90 219 0.9 3.5 0.00 0.00 0.00 61 1016.0
20260903151022 90 219 0.9 2.6 0.00 0.00 0.00 60 1016.0
20260903150022 89 218 0.9 4.3 0.00 0.00 0.00 62 1016.0
20260903145022 88 221 0.0 2.6 0.00 0.00 0.00 63 1016.0
20260903144022 88 198 0.9 3.5 0.00 0.00 0.00 64 1016.0
20260903143022 87 163 0.0 2.6 0.00 0.00 0.00 66 1015.9
20260903142017 86 154 0.9 4.3 0.00 0.00 0.00 69 1016.0
20260903141017 85 148 0.0 3.5 0.00 0.00 0.00 70 1016.0
20260903140022 84 135 0.0 3.5 0.00 0.00 0.00 72 1016.1
20260903135022 83 125 0.0 2.6 0.00 0.00 0.00 74 1016.1
20260903134025 82 124 0.0 2.6 0.00 0.00 0.00 76 1016.2
20260903133027 81 123 0.0 1.7 0.00 0.00 0.00 79 1016.2
20260903132022 80 123 0.0 1.7 0.00 0.00 0.00 82 1016.1
20260903131057 78 123 0.0 1.7 0.00 0.00 0.00 86 1016.1
20260903130027 76 0.0 0.0 0.00 0.00 0.00 90 1016.1
20260903125022 75 0.0 0.0 0.00 0.00 0.00 90 1016.2
20260903124022 75 0.0 0.0 0.00 0.00 0.00 91 1016.2
20260903123022 74 0.0 0.0 0.00 0.00 0.00 92 1016.1
20260903122042 73 0.0 0.0 0.00 0.00 0.00 93 1016.0
20260903121022 73 0.0 0.0 0.00 0.00 0.00 93 1015.9
20260903120016 72 0.0 0.0 0.00 0.00 0.00 93 1015.8
20260903115022 72 0.0 0.0 0.00 0.00 0.00 92 1015.8
20260903114022 72 0.0 0.0 0.00 0.00 0.00 93 1015.8
20260903113024 72 0.0 0.0 0.00 0.00 0.00 93 1015.8
20260903112022 72 0.0 0.0 0.00 0.00 0.00 92 1015.8
20260903111023 73 0.0 0.0 0.00 0.00 0.00 92 1015.7
20260903110017 73 0.0 0.0 0.00 0.00 0.00 92 1015.6
20260903105017 73 0.0 0.0 0.00 0.00 0.00 92 1015.6
20260903104027 73 0.0 0.0 0.00 0.00 0.00 92 1015.6
20260903103022 73 0.0 0.0 0.00 0.00 0.00 91 1015.5
20260903102022 74 0.0 0.0 0.00 0.00 0.00 91 1015.5
20260903101022 74 0.0 0.0 0.00 0.00 0.00 92 1015.5
20260903100022 74 0.0 0.0 0.00 0.00 0.00 92 1015.4
20260903095017 74 0.0 0.0 0.00 0.00 0.00 92 1015.3
20260903094047 74 0.0 0.0 0.00 0.00 0.00 91 1015.4
20260903093027 74 0.0 0.0 0.00 0.00 0.00 91 1015.4
20260903092043 73 0.0 0.0 0.00 0.00 0.00 91 1015.3
20260903091042 74 0.0 0.0 0.00 0.00 0.00 91 1015.4
20260903090022 74 0.0 0.0 0.00 0.00 0.00 91 1015.2
20260903085017 74 0.0 0.0 0.00 0.00 0.00 91 1015.2
20260903084037 74 0.0 0.0 0.00 0.00 0.00 91 1015.2
20260903083023 74 0.0 0.0 0.00 0.00 0.00 90 1015.2
20260903082027 74 0.0 0.0 0.00 0.00 0.00 91 1015.2
20260903081022 73 0.0 0.0 0.00 0.00 0.00 90 1015.2
20260903080022 74 0.0 0.0 0.00 0.00 0.00 89 1015.1
20260903075023 74 0.0 0.0 0.00 0.00 0.00 88 1015.0
20260903074016 75 0.0 0.0 0.00 0.00 0.00 89 1015.0
20260903073022 75 0.0 0.0 0.00 0.00 0.00 89 1015.0
20260903072022 75 0.0 0.0 0.00 0.00 0.00 89 1015.1
20260903071042 75 0.0 0.0 0.00 0.00 0.00 89 1015.0
20260903070027 75 0.0 0.0 0.00 0.00 0.00 87 1015.0
20260903065022 76 0.0 0.0 0.00 0.00 0.00 87 1015.1
20260903064022 76 0.0 0.0 0.00 0.00 0.00 87 1015.0
20260903063056 77 0.0 0.0 0.00 0.00 0.00 86 1015.1
20260903062022 77 0.0 0.0 0.00 0.00 0.00 85 1015.1
20260903061022 77 0.0 0.0 0.00 0.00 0.00 84 1015.1
20260903060022 80 0.0 0.0 0.00 0.00 0.00 80 1015.2
20260903055021 80 0.0 0.0 0.00 0.00 0.00 80 1015.2
20260903054022 79 0.0 0.0 0.00 0.00 0.00 81 1015.2
20260903053057 79 0.0 0.0 0.00 0.00 0.00 81 1015.2
20260903052023 80 0.0 0.0 0.00 0.00 0.00 80 1015.2
20260903051042 80 0.0 0.0 0.00 0.00 0.00 79 1015.2
20260903050022 79 0.0 0.0 0.00 0.00 0.00 81 1015.1
20260903045015 78 0.0 0.0 0.00 0.00 0.00 83 1015.1
20260903044026 78 0.0 0.0 0.00 0.00 0.00 83 1015.0
20260903043020 78 0.0 0.0 0.00 0.00 0.00 83 1015.0
20260903042021 77 0.0 0.0 0.00 0.00 0.00 84 1015.0
20260903041041 78 0.0 0.0 0.00 0.00 0.00 83 1014.9
20260903040020 78 0.0 0.0 0.00 0.00 0.00 83 1015.0
20260903035015 78 0.0 0.0 0.00 0.00 0.00 83 1014.9
20260903034021 78 0.0 0.0 0.00 0.00 0.00 82 1015.0
20260903033041 79 0.0 0.0 0.00 0.00 0.00 82 1015.0
20260903032020 79 0.0 0.0 0.00 0.00 0.00 79 1015.0
20260903031020 79 0.0 0.0 0.00 0.00 0.00 78 1015.0
20260903030025 79 0.0 0.0 0.00 0.00 0.00 79 1015.0
20260903025101 79 0.0 0.0 0.00 0.00 0.00 79 1014.8
20260903024015 79 0.0 0.0 0.00 0.00 0.00 79 1014.8
20260903023020 80 0.0 0.0 0.00 0.00 0.00 78 1014.7
20260903022022 81 0.0 0.0 0.00 0.00 0.00 77 1014.7
20260903021020 81 0.0 0.0 0.00 0.00 0.00 78 1014.6
20260903020020 82 0.0 0.0 0.00 0.00 0.00 74 1014.6
20260903015020 82 0.0 0.0 0.00 0.00 0.00 75 1014.4
20260903014015 83 0.0 0.0 0.00 0.00 0.00 73 1014.3
20260903013015 83 0.0 0.0 0.00 0.00 0.00 72 1014.2
20260903012020 82 0.0 0.0 0.00 0.00 0.00 74 1014.2
20260903011020 83 0.0 0.0 0.00 0.00 0.00 73 1014.2
20260903010020 84 0.0 0.0 0.00 0.00 0.00 72 1014.1
20260903005018 84 0.0 0.0 0.00 0.00 0.00 72 1014.1
20260903004020 84 0.0 0.0 0.00 0.00 0.00 72 1014.1
20260903003015 86 0.0 0.0 0.00 0.00 0.00 68 1014.0
20260903002020 87 0.0 0.0 0.00 0.00 0.00 65 1014.1
20260903001020 88 0.0 0.0 0.00 0.00 0.00 63 1014.1
20260903000045 90 0.0 0.0 0.00 0.00 0.00 60 1014.2
20260902235020 91 123 0.0 1.7 0.00 0.00 0.00 56 1014.2
20260902234021 92 123 0.0 1.7 0.00 0.00 0.00 55 1014.2